TimeEST,TemperatureF,Dew PointF,Humidity,Sea Level PressureIn,VisibilityMPH,Wind Direction,Wind SpeedMPH,Gust SpeedMPH,PrecipitationIn,Events,Conditions,WindDirDegrees,DateUTC
12:13 AM,39.0,34.7,84,29.92,10.0,Calm,Calm,-,N/A,Rain,Light Rain,0,2013-01-13 05:13:00
12:34 AM,38.5,35.1,87,29.91,7.0,Calm,Calm,-,0.01,Rain,Light Rain,0,2013-01-13 05:34:00
12:54 AM,38.3,36.3,93,29.90,5.0,Calm,Calm,-,0.02,Rain,Light Rain,0,2013-01-13 05:54:00
1:13 AM,37.4,36.1,95,29.88,5.0,Calm,Calm,-,0.01,Rain,Light Rain,0,2013-01-13 06:13:00
1:34 AM,37.4,35.6,93,29.87,5.0,NNE,3.5,-,0.02,Rain,Light Rain,30,2013-01-13 06:34:00
1:54 AM,37.0,35.6,95,29.86,7.0,Calm,Calm,-,0.03,Rain,Light Rain,0,2013-01-13 06:54:00
2:13 AM,36.9,35.4,95,29.86,5.0,Calm,Calm,-,0.01,Rain,Light Rain,0,2013-01-13 07:13:00
2:34 AM,36.7,35.6,96,29.84,5.0,Calm,Calm,-,0.02,Rain,Light Rain,0,2013-01-13 07:34:00
2:54 AM,36.7,35.6,96,29.84,5.0,North,3.5,-,0.02,Rain,Light Rain,350,2013-01-13 07:54:00
3:13 AM,36.7,35.6,96,29.85,5.0,Calm,Calm,-,0.01,Rain,Rain,0,2013-01-13 08:13:00
3:34 AM,36.7,35.6,96,29.86,3.0,Calm,Calm,-,0.03,Rain,Rain,0,2013-01-13 08:34:00
3:54 AM,36.5,35.8,97,29.85,4.0,Calm,Calm,-,0.05,Rain,Rain,0,2013-01-13 08:54:00
4:14 AM,36.5,35.8,97,29.85,4.0,Calm,Calm,-,0.01,Rain,Light Rain,0,2013-01-13 09:14:00
4:34 AM,36.5,35.8,97,29.87,5.0,WNW,3.5,-,0.02,Rain,Light Rain,300,2013-01-13 09:34:00
4:54 AM,36.0,35.6,99,29.85,4.0,Calm,Calm,-,0.02,Rain,Rain,0,2013-01-13 09:54:00
5:14 AM,35.8,35.2,98,29.84,2.5,NNW,3.5,-,N/A,,Heavy Drizzle,340,2013-01-13 10:14:00
5:34 AM,35.8,35.2,98,29.83,2.0,Calm,Calm,-,N/A,Rain,Light Rain,0,2013-01-13 10:34:00
5:54 AM,35.6,35.2,99,29.83,3.0,Calm,Calm,-,0.01,,Overcast,0,2013-01-13 10:54:00
6:14 AM,35.6,35.2,99,29.82,4.0,East,4.6,-,N/A,,Drizzle,90,2013-01-13 11:14:00
6:34 AM,35.6,35.1,98,29.80,5.0,East,4.6,-,N/A,,Overcast,90,2013-01-13 11:34:00
6:54 AM,35.6,35.2,99,29.82,7.0,ESE,3.5,-,N/A,,Overcast,110,2013-01-13 11:54:00
7:14 AM,35.8,35.2,98,29.82,10.0,Calm,Calm,-,N/A,,Overcast,0,2013-01-13 12:14:00
7:34 AM,35.8,35.2,98,29.82,4.0,Calm,Calm,-,N/A,,Light Drizzle,0,2013-01-13 12:34:00
7:54 AM,35.8,35.2,98,29.82,7.0,Calm,Calm,-,N/A,,Overcast,0,2013-01-13 12:54:00
8:14 AM,36.0,35.6,99,29.83,7.0,Calm,Calm,-,N/A,,Overcast,0,2013-01-13 13:14:00
8:34 AM,36.0,35.6,99,29.85,7.0,West,4.6,-,N/A,,Overcast,280,2013-01-13 13:34:00
8:54 AM,36.0,35.6,99,29.86,7.0,WNW,4.6,-,N/A,,Overcast,290,2013-01-13 13:54:00
9:14 AM,36.0,35.6,99,29.87,2.0,WNW,6.9,-,N/A,,Drizzle,290,2013-01-13 14:14:00
9:34 AM,36.0,35.6,99,29.87,2.0,WNW,6.9,-,N/A,,Overcast,300,2013-01-13 14:34:00
9:54 AM,36.3,36.0,99,29.87,2.0,WNW,5.8,-,N/A,,Light Drizzle,290,2013-01-13 14:54:00
10:14 AM,36.5,36.0,98,29.87,3.0,WNW,4.6,-,N/A,,Overcast,300,2013-01-13 15:14:00
10:34 AM,36.1,35.6,98,29.88,4.0,WNW,6.9,-,N/A,,Overcast,290,2013-01-13 15:34:00
10:54 AM,36.1,35.6,98,29.89,2.5,WNW,6.9,-,N/A,,Drizzle,300,2013-01-13 15:54:00
11:14 AM,36.5,35.8,97,29.89,1.8,WNW,6.9,-,N/A,,Drizzle,290,2013-01-13 16:14:00
11:34 AM,36.5,36.0,98,29.89,3.0,West,5.8,-,N/A,,Overcast,280,2013-01-13 16:34:00
11:54 AM,36.5,36.0,98,29.90,2.5,West,8.1,-,N/A,,Overcast,280,2013-01-13 16:54:00
12:14 PM,36.7,36.1,98,29.88,2.5,West,5.8,-,N/A,,Overcast,280,2013-01-13 17:14:00
12:34 PM,36.9,36.0,97,29.84,2.5,NNW,8.1,-,N/A,,Overcast,330,2013-01-13 17:34:00
12:54 PM,36.7,35.6,96,29.85,10.0,WNW,4.6,-,N/A,,Overcast,300,2013-01-13 17:54:00
1:15 PM,37.0,35.8,95,29.87,10.0,West,5.8,-,N/A,,Overcast,280,2013-01-13 18:15:00
1:54 PM,36.7,35.6,96,29.87,7.0,WNW,5.8,-,N/A,,Overcast,290,2013-01-13 18:54:00
2:15 PM,36.7,35.1,94,29.87,10.0,WNW,5.8,-,N/A,,Overcast,300,2013-01-13 19:15:00
2:34 PM,36.3,34.3,93,29.86,10.0,NW,4.6,-,N/A,,Overcast,310,2013-01-13 19:34:00
2:54 PM,36.5,34.7,93,29.87,10.0,WNW,4.6,-,N/A,,Overcast,290,2013-01-13 19:54:00
3:14 PM,36.5,34.7,93,29.88,10.0,West,8.1,-,N/A,,Overcast,280,2013-01-13 20:14:00
3:34 PM,35.8,33.8,92,29.91,10.0,West,8.1,-,N/A,,Overcast,280,2013-01-13 20:34:00
3:55 PM,35.6,33.8,93,29.91,7.0,West,4.6,-,N/A,,Overcast,270,2013-01-13 20:55:00
4:14 PM,35.2,33.4,93,29.89,10.0,West,5.8,-,N/A,,Overcast,270,2013-01-13 21:14:00
4:34 PM,35.1,32.9,92,29.89,10.0,WSW,3.5,-,N/A,,Overcast,250,2013-01-13 21:34:00
4:55 PM,34.9,33.1,93,29.92,10.0,SW,5.8,-,N/A,,Overcast,230,2013-01-13 21:55:00
5:14 PM,34.3,32.7,94,29.89,5.0,SSW,3.5,-,N/A,Snow,Light Snow,200,2013-01-13 22:14:00
5:34 PM,33.8,32.4,94,29.90,2.5,WSW,4.6,-,0.01,Snow,Light Snow,240,2013-01-13 22:34:00
5:55 PM,33.3,32.9,99,29.90,2.0,West,6.9,-,0.02,Snow,Light Snow,270,2013-01-13 22:55:00
6:14 PM,33.1,32.5,98,29.89,1.5,West,4.6,-,N/A,Snow,Light Snow,260,2013-01-13 23:14:00
6:34 PM,32.9,32.4,98,29.91,4.0,WSW,5.8,-,N/A,Snow,Light Snow,250,2013-01-13 23:34:00
6:54 PM,32.7,32.2,98,29.89,1.5,West,3.5,-,N/A,Snow,Light Snow,260,2013-01-13 23:54:00
7:14 PM,32.4,32.0,99,29.91,1.0,West,6.9,-,0.01,Snow,Snow,260,2013-01-14 00:14:00
7:35 PM,32.2,32.0,99,29.91,3.0,West,4.6,-,0.01,Snow,Light Snow,260,2013-01-14 00:35:00
7:54 PM,32.2,32.0,99,29.92,3.0,West,6.9,-,0.01,Snow,Light Snow,270,2013-01-14 00:54:00
8:14 PM,32.0,32.0,100,29.93,10.0,West,5.8,-,N/A,,Overcast,260,2013-01-14 01:14:00
8:34 PM,32.0,31.1,96,29.94,10.0,WSW,9.2,-,N/A,,Overcast,240,2013-01-14 01:34:00
8:54 PM,32.0,30.7,95,29.93,10.0,West,9.2,-,N/A,,Overcast,270,2013-01-14 01:54:00
9:15 PM,31.1,28.4,90,29.94,10.0,WSW,8.1,20.7,N/A,,Overcast,250,2013-01-14 02:15:00
9:34 PM,30.6,27.5,88,29.94,10.0,WSW,11.5,-,N/A,,Overcast,250,2013-01-14 02:34:00
9:54 PM,30.0,27.1,89,29.95,10.0,WSW,11.5,17.3,N/A,,Overcast,240,2013-01-14 02:54:00
10:15 PM,29.3,26.2,88,29.96,10.0,WSW,11.5,16.1,N/A,,Overcast,250,2013-01-14 03:15:00
10:34 PM,28.9,25.7,88,29.97,10.0,WSW,10.4,-,N/A,,Overcast,250,2013-01-14 03:34:00
10:54 PM,28.2,24.8,87,29.97,10.0,WSW,15.0,19.6,N/A,,Overcast,250,2013-01-14 03:54:00
11:15 PM,27.5,23.9,86,29.98,10.0,West,10.4,20.7,N/A,,Overcast,260,2013-01-14 04:15:00
11:34 PM,27.0,22.6,84,30.00,10.0,West,17.3,26.5,N/A,,Overcast,260,2013-01-14 04:34:00
11:54 PM,26.6,22.1,83,30.01,10.0,WSW,13.8,25.3,N/A,,Overcast,250,2013-01-14 04:54:00